Tracking 29892 objects as of 21-Nov-2024
HD Live streaming from Space Station
objects crossing your sky now

STARLINK-4521

Track STARLINK-4521 now!
10-day predictions
STARLINK-4521 is classified as:


NORAD ID: 53391
Int'l Code: 2022-097D
Perigee: 545.9 km
Apogee: 547.9 km
Inclination: 53.2 °
Period: 95.4 minutes
Semi major axis: 6917 km
RCS: Unknown
Launch date: August 10, 2022
Source: United States (US)
Launch site: AIR FORCE EASTERN TEST RANGE (AFETR)
Your satellite tracking list
Your tracking list is empty




NASA's NSSDC Master Catalog

Two Line Element Set (TLE):
1 53391U 22097D   24325.76467232  .00000267  00000-0  34870-4 0  9995
2 53391  53.2161  91.6495 0001453  95.8100 264.3058 15.08844379127121
Source of the keplerian elements: AFSPC